(488) Kreusa
ephemeris date magn radius delta ra dec elong phase
Today19 Jun 202612.83.347 AU2.364 AU19h04m-27°14'162.5°5.2°
Opposition3 Jul 202612.63.367 AU2.353 AU18h52m-28°10'174.7°1.6°
(488) Kreusa - 2026-06-19
astro.vanbuitenen.nl


 
-1 year
-1 month
-1 day
Now
+1 day
+1 month
+1 year

The interactive orbit chart above shows the body's path through the solar system and its position at the given date. Green and blue lines are shown perpendicular to the ecliptic plane: Green if the path is above the ecliptic plane, blue if it is below. (Left-click and drag to rotate the view; Right-click and drag to move the view; Use scroll wheel to zoom in our out.)

The orbital elements of Kreusa are:

            e (Eccentricity)                : 0.1585153
            a (Semimajor axis)              : 3.1679551
            i (Inclination)                 : 11.47516
            Ω (Longitude of ascending node) : 82.98164
            ω (Argument of perihelion)      : 77.34559
            M (Mean anomaly)                : 100.69665
            Epoch                           : 2026 Jun 09

            L (Longitude of perihelion)     : 160.07768
            B (Latitude of perihelion)      : 11.19277
            P (Orbital period in years)     : 5.64            
        

The light curve chart below shows the estimated development of the minor planet's magnitude.


The all-sky chart below shows the path of the minor planet over the same period as the light curve. The current position is marked yellow.





The following chart shows the path of the minor planet in the next few days. The field of view is optimized for (~10x50) binoculars and finderscopes.




Ephemerides:
Date       Time       RA (2000)    DEC (2000)    delta   radius  elong  phase   PA    magn
2026-06-19 00:00 UT   19 04 18.3   -27 14 60     2.364    3.347  162.5    5.2   278   12.8 
2026-06-19 17:43 UT   19 03 43.4   -27 18 03     2.362    3.348  163.3    5.0   279   12.8 
2026-06-20 00:00 UT   19 03 31.0   -27 19 07     2.362    3.349  163.6    4.9   280   12.8 
2026-06-21 00:00 UT   19 02 42.9   -27 23 13     2.359    3.350  164.6    4.6   281   12.8 
2026-06-22 00:00 UT   19 01 54.2   -27 27 17     2.357    3.351  165.7    4.3   283   12.8 
2026-06-23 00:00 UT   19 01 05.0   -27 31 18     2.355    3.353  166.8    4.0   285   12.7 
2026-06-24 00:00 UT   19 00 15.2   -27 35 18     2.354    3.354  167.8    3.7   287   12.7 
2026-06-25 00:00 UT   18 59 25.0   -27 39 15     2.352    3.355  168.8    3.4   290   12.7 
2026-06-26 00:00 UT   18 58 34.3   -27 43 10     2.352    3.357  169.8    3.1   293   12.7 
2026-06-27 00:00 UT   18 57 43.2   -27 47 02     2.351    3.358  170.8    2.8   297   12.7 
2026-06-28 00:00 UT   18 56 51.8   -27 50 51     2.350    3.359  171.7    2.5   301   12.6 
2026-06-29 00:00 UT   18 56 00.1   -27 54 37     2.350    3.361  172.5    2.2   307   12.6 
2026-06-30 00:00 UT   18 55 08.2   -27 58 20     2.350    3.362  173.3    2.0   314   12.6 
2026-07-01 00:00 UT   18 54 16.0   -28 01 59     2.351    3.363  173.9    1.8   323   12.6 
2026-07-02 00:00 UT   18 53 23.7   -28 05 36     2.352    3.365  174.4    1.7   334   12.6 
2026-07-03 00:00 UT   18 52 31.3   -28 09 08     2.352    3.366  174.7    1.6   345   12.6 
2026-07-04 00:00 UT   18 51 38.8   -28 12 38     2.354    3.367  174.7    1.6   358   12.6 
2026-07-05 00:00 UT   18 50 46.3   -28 16 03     2.355    3.369  174.5    1.7    10   12.6 
2026-07-06 00:00 UT   18 49 53.9   -28 19 25     2.357    3.370  174.0    1.8    21   12.6 
2026-07-07 00:00 UT   18 49 01.6   -28 22 42     2.359    3.371  173.4    2.0    30   12.6 
2026-07-08 00:00 UT   18 48 09.4   -28 25 56     2.362    3.373  172.7    2.2    37   12.6 
2026-07-09 00:00 UT   18 47 17.4   -28 29 05     2.365    3.374  171.9    2.4    43   12.7 
2026-07-10 00:00 UT   18 46 25.6   -28 32 11     2.368    3.375  171.0    2.7    48   12.7 
2026-07-11 00:00 UT   18 45 34.2   -28 35 12     2.371    3.377  170.0    3.0    52   12.7 
2026-07-12 00:00 UT   18 44 43.0   -28 38 09     2.374    3.378  169.0    3.3    55   12.7 
2026-07-13 00:00 UT   18 43 52.3   -28 41 01     2.378    3.379  168.0    3.6    58   12.7 
2026-07-14 00:00 UT   18 43 02.0   -28 43 49     2.382    3.381  167.0    3.9    60   12.8 
2026-07-15 00:00 UT   18 42 12.2   -28 46 33     2.387    3.382  165.9    4.2    62   12.8 
2026-07-16 00:00 UT   18 41 23.0   -28 49 12     2.392    3.383  164.9    4.5    64   12.8 
2026-07-17 00:00 UT   18 40 34.4   -28 51 47     2.397    3.384  163.8    4.8    66   12.8 
2026-07-18 00:00 UT   18 39 46.4   -28 54 17     2.402    3.386  162.7    5.1    67   12.9 
2026-07-19 00:00 UT   18 38 59.0   -28 56 43     2.407    3.387  161.6    5.4    68   12.9 


    Terminology:
            
    delta:  distance between minor planet and earth in AU
    radius: distance between minor planet and sun in AU
    magn:   magnitude (brightness) estimate    
    ra:     right ascension in hours (24h = 360deg)
    dec:    declination in degrees
    elong:  elongation in degrees (angle sun-earth-minor planet)    
    phase:  phase angle in degrees (angle sun-minor planet-earth)        
    AU:     Astronomical Unit (mean distance between earth and sun: 149597870.7 km
    

Orbital elements provided by the MPC (Minor Planet Center).
Calculations by a modified version of AAPlus, a C# implementation of the AA+ project by PJ Naughter from the algorithms presented in the book "Astronomical Algorithms" by Jean Meeus.
NGC2000 dso catalog and star labels from VizieR as provided by the Strasbourg astronomical Data Center.
Tycho2 catalog from the ESO archive.